DW3800 Weather Reports


time (UTC)temp
F
wind
direction
speed
knots
gust
knots
rain 1hr
in
rain 24hr
in
rain mn
in
humidity
%
barometer
mb
20260507060737 36 229 0.0 0.0 0.00 0.00 0.00 73 1016.4
20260507060233 36 229 0.0 0.0 0.00 0.00 0.00 73 1016.6
20260507055729 36 228 0.0 0.0 0.00 0.00 0.00 74 1016.6
20260507055225 36 228 0.0 0.0 0.00 0.00 0.00 73 1016.6
20260507054721 36 229 0.0 0.0 0.00 0.00 0.00 74 1016.7
20260507054218 36 228 0.0 0.0 0.00 0.00 0.00 74 1016.6
20260507053716 36 228 0.0 0.0 0.00 0.00 0.00 74 1016.6
20260507053213 36 229 0.0 0.0 0.00 0.00 0.00 74 1016.6
20260507052712 36 228 0.0 0.0 0.00 0.00 0.00 73 1016.7
20260507052208 37 228 0.0 0.0 0.00 0.00 0.00 73 1016.8
20260507051706 37 228 0.0 0.0 0.00 0.00 0.00 73 1016.8
20260507051202 37 228 0.0 0.0 0.00 0.00 0.00 72 1016.8
20260507050659 37 228 0.0 0.0 0.00 0.00 0.00 72 1016.8
20260507050156 38 228 0.0 0.0 0.00 0.00 0.00 72 1016.8
20260507045653 38 228 0.0 0.0 0.00 0.00 0.00 71 1016.6
20260507045149 38 228 0.0 0.0 0.00 0.00 0.00 70 1016.8
20260507044646 38 228 0.0 0.0 0.00 0.00 0.00 70 1017.0
20260507044143 38 215 0.0 0.0 0.00 0.00 0.00 69 1016.9
20260507043639 38 215 0.0 0.0 0.00 0.00 0.00 69 1017.1
20260507043136 38 214 0.0 0.0 0.00 0.00 0.00 68 1016.9
20260507042633 38 209 0.0 0.0 0.00 0.00 0.00 68 1017.0
20260507042127 37 209 0.0 0.0 0.00 0.00 0.00 69 1017.1
20260507041625 38 209 0.0 0.0 0.00 0.00 0.00 68 1017.2
20260507041121 38 217 0.0 0.0 0.00 0.00 0.00 67 1017.0
20260507040619 38 212 0.0 0.0 0.00 0.00 0.00 68 1016.9
20260507040115 38 214 0.0 0.0 0.00 0.00 0.00 67 1017.0
20260507035611 38 204 0.0 1.7 0.00 0.00 0.00 67 1017.1
20260507035107 37 205 0.0 0.0 0.00 0.00 0.00 69 1017.2
20260507034604 36 222 0.0 0.0 0.00 0.00 0.00 70 1017.2
20260507034102 36 244 0.0 0.0 0.00 0.00 0.00 71 1017.0
20260507033600 35 244 0.0 0.0 0.00 0.00 0.00 71 1017.1
20260507033056 35 244 0.0 0.0 0.00 0.00 0.00 71 1017.1
20260507032554 35 244 0.0 0.0 0.00 0.00 0.00 72 1017.2
20260507032050 36 244 0.0 0.0 0.00 0.00 0.00 71 1017.0
20260507031546 36 244 0.0 0.0 0.00 0.00 0.00 71 1017.4
20260507031043 36 243 0.0 0.0 0.00 0.00 0.00 70 1017.2
20260507030540 36 223 0.0 0.0 0.00 0.00 0.00 69 1017.5
20260507030038 36 205 0.0 0.9 0.00 0.00 0.00 69 1017.4
20260507025535 36 224 0.0 0.0 0.00 0.00 0.00 68 1017.3
20260507025032 37 246 0.0 0.0 0.00 0.00 0.00 68 1017.5
20260507024530 37 247 0.0 0.0 0.00 0.00 0.00 67 1017.4
20260507024026 37 257 0.0 0.0 0.00 0.00 0.00 66 1017.6
20260507023522 38 236 0.0 0.0 0.00 0.00 0.00 65 1017.5
20260507023020 38 214 0.0 0.0 0.00 0.00 0.00 63 1017.5
20260507022516 39 232 0.0 0.0 0.00 0.00 0.00 61 1017.3
20260507022012 40 262 0.0 0.9 0.00 0.00 0.00 61 1017.4
20260507021508 40 257 0.0 0.9 0.00 0.00 0.00 59 1017.3
20260507021005 41 258 0.9 0.9 0.00 0.00 0.00 58 1017.4
20260507020502 41 208 0.0 1.7 0.00 0.00 0.00 58 1017.5
20260507015959 42 223 0.0 0.9 0.00 0.00 0.00 56 1017.5
20260507015458 42 224 0.9 1.7 0.00 0.00 0.00 56 1017.3
20260507014954 42 222 0.9 0.9 0.00 0.00 0.00 55 1017.4
20260507014451 42 215 1.7 1.7 0.00 0.00 0.00 55 1017.2
20260507013946 42 251 1.7 1.7 0.00 0.00 0.00 54 1017.3
20260507013443 43 245 0.9 1.7 0.00 0.00 0.00 55 1017.2
20260507012941 43 249 0.0 0.9 0.00 0.00 0.00 55 1017.4
20260507012438 43 210 2.6 2.6 0.00 0.00 0.00 54 1017.3
20260507011934 43 241 1.7 2.6 0.00 0.00 0.00 54 1017.3
20260507011431 43 223 1.7 4.3 0.00 0.00 0.00 54 1017.3
20260507010926 43 228 1.7 1.7 0.00 0.00 0.00 53 1017.3
20260507010421 43 233 0.9 1.7 0.00 0.00 0.00 53 1017.3
20260507005918 43 233 1.7 2.6 0.00 0.00 0.00 52 1017.4
20260507005415 43 248 2.6 2.6 0.00 0.00 0.00 52 1017.4
20260507004912 43 273 0.9 2.6 0.00 0.00 0.00 53 1017.4
20260507004409 43 223 2.6 6.1 0.00 0.00 0.00 53 1017.3
20260507003906 43 226 2.6 4.3 0.00 0.00 0.00 53 1017.3
20260507003401 43 157 0.0 1.7 0.00 0.00 0.00 54 1017.4
20260507002857 43 236 2.6 5.2 0.00 0.00 0.00 52 1017.3
20260507002353 43 241 2.6 4.3 0.00 0.00 0.00 52 1017.5
20260507001850 44 228 2.6 4.3 0.00 0.00 0.00 53 1017.4
20260507001347 44 149 4.3 7.0 0.00 0.00 0.00 52 1017.4
20260507000844 44 215 6.1 8.7 0.00 0.00 0.00 52 1017.7
20260507000339 44 142 2.6 6.1 0.00 0.00 0.00 52 1017.5
20260506235836 44 223 0.9 5.2 0.00 0.00 0.00 53 1017.3
20260506235333 44 243 4.3 5.2 0.00 0.00 0.00 52 1017.5
20260506234828 44 281 1.7 2.6 0.00 0.00 0.00 53 1017.7
20260506234326 43 240 2.6 4.3 0.00 0.00 0.00 52 1017.6
20260506233824 44 180 2.6 6.1 0.00 0.00 0.00 52 1017.5
20260506233319 44 173 3.5 4.3 0.00 0.00 0.00 53 1017.8
20260506232817 44 186 1.7 6.1 0.00 0.00 0.00 53 1017.5
20260506232312 44 242 0.9 5.2 0.00 0.00 0.00 54 1017.6
20260506231809 44 242 3.5 5.2 0.00 0.00 0.00 52 1017.6
20260506231307 44 138 2.6 7.8 0.00 0.00 0.00 52 1017.7
20260506230804 44 209 2.6 4.3 0.00 0.00 0.00 52 1017.7
20260506230301 44 222 2.6 6.1 0.00 0.00 0.00 53 1017.5
20260506225757 44 249 4.3 7.8 0.00 0.00 0.00 52 1017.7
20260506225254 44 235 0.9 7.0 0.00 0.00 0.00 51 1017.6
20260506224751 44 239 2.6 4.3 0.00 0.00 0.00 51 1017.7
20260506224248 44 226 3.5 5.2 0.00 0.00 0.00 52 1017.9
20260506223744 43 256 1.7 2.6 0.00 0.00 0.00 53 1017.8
20260506223240 44 227 4.3 8.7 0.00 0.00 0.00 52 1017.6
20260506222737 43 210 3.5 6.1 0.00 0.00 0.00 52 1017.8
20260506222232 43 216 3.5 7.8 0.00 0.00 0.00 52 1017.9
20260506221731 43 216 5.2 8.7 0.00 0.00 0.00 52 1017.9
20260506221229 44 166 3.5 5.2 0.00 0.00 0.00 52 1017.8
20260506220726 43 249 2.6 5.2 0.00 0.00 0.00 53 1018.1
20260506220220 43 230 3.5 5.2 0.00 0.00 0.00 54 1017.8
20260506215717 43 222 1.7 6.1 0.00 0.00 0.00 53 1017.9
20260506215212 43 271 3.5 5.2 0.00 0.00 0.00 53 1017.9
20260506214709 43 208 6.1 8.7 0.00 0.00 0.00 53 1018.1
20260506214207 43 151 1.7 7.8 0.00 0.00 0.00 54 1018.0
20260506213705 43 210 5.2 7.8 0.00 0.00 0.00 53 1018.1
20260506213202 43 206 1.7 5.2 0.00 0.00 0.00 54 1018.3
20260506212659 43 181 4.3 7.8 0.00 0.00 0.00 54 1018.3
20260506212154 43 168 4.3 5.2 0.00 0.00 0.00 54 1018.2
20260506211650 43 226 4.3 7.0 0.00 0.00 0.00 53 1018.3
20260506211147 43 255 4.3 7.0 0.00 0.00 0.00 53 1018.3
20260506210643 43 201 3.5 6.1 0.00 0.00 0.00 54 1018.3
20260506210140 42 164 6.1 7.8 0.00 0.00 0.00 53 1018.3
20260506205638 43 222 3.5 6.1 0.00 0.00 0.00 53 1018.3
20260506205132 42 193 3.5 6.1 0.00 0.00 0.00 53 1018.2
20260506204631 42 170 5.2 8.7 0.00 0.00 0.00 54 1018.4
20260506204127 43 168 3.5 5.2 0.00 0.00 0.00 53 1018.3
20260506203625 43 241 0.9 5.2 0.00 0.00 0.00 53 1018.4
20260506203122 42 275 1.7 5.2 0.00 0.00 0.00 52 1018.4
20260506202620 42 205 7.0 7.8 0.00 0.00 0.00 52 1018.3
20260506202116 42 249 4.3 7.8 0.00 0.00 0.00 52 1018.6
20260506201613 43 174 1.7 2.6 0.00 0.00 0.00 53 1018.2
20260506201109 42 227 3.5 7.0 0.00 0.00 0.00 52 1018.3
20260506200606 42 243 3.5 5.2 0.00 0.00 0.00 53 1018.5
20260506195559 42 208 2.6 5.2 0.00 0.00 0.00 54 1018.3
20260506195056 42 232 2.6 6.1 0.00 0.00 0.00 54 1018.6
20260506194554 42 222 5.2 6.1 0.00 0.00 0.00 52 1018.6
20260506194049 42 228 3.5 7.8 0.00 0.00 0.00 53 1018.2
20260506193547 42 231 2.6 7.0 0.00 0.00 0.00 53 1018.4
20260506193044 42 189 0.9 9.6 0.00 0.00 0.00 53 1018.6
20260506192541 42 226 0.9 2.6 0.00 0.00 0.00 53 1018.5
20260506192037 41 212 4.3 7.8 0.00 0.00 0.00 53 1018.6
20260506191534 42 223 5.2 7.8 0.00 0.00 0.00 54 1018.6
20260506191029 42 170 7.0 9.6 0.00 0.00 0.00 53 1018.5
20260506190527 42 229 7.0 7.8 0.00 0.00 0.00 53 1018.3
20260506190024 42 280 0.9 8.7 0.00 0.00 0.00 53 1018.5
20260506185521 42 253 2.6 4.3 0.00 0.00 0.00 53 1018.4
20260506185017 42 217 4.3 8.7 0.00 0.00 0.00 53 1018.3
20260506184515 42 277 2.6 6.1 0.00 0.00 0.00 53 1018.6
20260506184012 42 214 2.6 7.0 0.00 0.00 0.00 53 1018.5
20260506183508 42 159 2.6 6.1 0.00 0.00 0.00 53 1018.8
20260506183005 42 183 2.6 6.1 0.00 0.00 0.00 53 1018.5
20260506182502 42 217 4.3 7.0 0.00 0.00 0.00 53 1018.5
20260506181959 41 150 3.5 5.2 0.00 0.00 0.00 55 1018.5
20260506181457 41 271 2.6 7.0 0.00 0.00 0.00 54 1018.8
20260506180954 41 250 0.9 7.0 0.00 0.00 0.00 55 1018.6
20260506180450 42 254 3.5 4.3 0.00 0.00 0.00 54 1018.4
20260506175947 41 210 2.6 5.2 0.00 0.00 0.00 56 1018.8
20260506175444 41 251 2.6 13.9 0.00 0.00 0.00 55 1018.9
20260506174940 41 161 2.6 7.0 0.00 0.00 0.00 55 1018.8
20260506174438 41 222 4.3 7.0 0.00 0.00 0.00 56 1018.8
20260506173934 41 204 5.2 8.7 0.00 0.00 0.00 54 1018.6
20260506173431 42 239 1.7 1.7 0.00 0.00 0.00 55 1018.9
20260506172923 41 218 3.5 6.1 0.00 0.00 0.00 55 1018.9
20260506172420 40 180 2.6 6.1 0.00 0.00 0.00 56 1018.8
20260506171917 40 221 2.6 8.7 0.00 0.00 0.00 55 1018.8
20260506171414 40 238 4.3 8.7 0.00 0.00 0.00 56 1018.8
20260506170912 40 170 7.0 8.7 0.00 0.00 0.00 54 1018.8
20260506170407 40 253 4.3 7.0 0.00 0.00 0.00 55 1018.9
20260506165901 40 211 2.6 11.3 0.00 0.00 0.00 55 1019.0
20260506165359 40 249 4.3 7.8 0.00 0.00 0.00 54 1019.0
20260506164855 40 245 3.5 5.2 0.00 0.00 0.00 54 1018.9
20260506164351 40 111 0.9 6.1 0.00 0.00 0.00 56 1018.9
20260506163849 40 234 6.1 11.3 0.00 0.00 0.00 55 1018.9
20260506163344 40 249 4.3 13.9 0.00 0.00 0.00 55 1018.9
20260506162839 39 259 0.9 7.0 0.00 0.00 0.00 55 1018.8
20260506162337 40 242 4.3 11.3 0.00 0.00 0.00 55 1019.0
20260506161829 39 229 3.5 8.7 0.00 0.00 0.00 56 1018.8
20260506161326 39 238 3.5 7.0 0.00 0.00 0.00 57 1018.9
20260506160823 39 149 3.5 11.3 0.00 0.00 0.00 57 1019.0
20260506160320 39 236 6.1 7.0 0.00 0.00 0.00 57 1018.9
20260506155818 40 219 0.9 5.2 0.00 0.00 0.00 57 1018.8
20260506155314 40 189 2.6 6.1 0.00 0.00 0.00 56 1018.9
20260506153427 40 218 2.6 9.6 0.00 0.00 0.00 56 1018.8
20260506152925 40 254 4.3 4.3 0.00 0.00 0.00 54 1018.8
20260506152421 40 236 3.5 8.7 0.00 0.00 0.00 54 1018.8
20260506151920 40 192 5.2 7.0 0.00 0.00 0.00 54 1018.6
20260506151417 40 109 2.6 5.2 0.00 0.00 0.00 55 1018.5
20260506150914 40 202 4.3 8.7 0.00 0.00 0.00 55 1018.6
20260506150410 40 186 4.3 13.0 0.00 0.00 0.00 55 1018.6
20260506145908 40 225 4.3 8.7 0.00 0.00 0.00 54 1018.9
20260506145403 40 198 6.1 13.0 0.00 0.00 0.00 56 1018.9
20260506144901 40 244 1.7 6.1 0.00 0.00 0.00 55 1018.6
20260506144357 40 198 6.1 13.0 0.00 0.00 0.00 54 1018.6
20260506143856 40 288 2.6 7.8 0.00 0.00 0.00 56 1018.8
20260506143352 40 214 6.1 8.7 0.00 0.00 0.00 55 1018.8
20260506142851 40 235 7.8 11.3 0.00 0.00 0.00 55 1018.6
20260506142348 40 255 0.9 5.2 0.00 0.00 0.00 57 1018.6
20260506141847 40 265 2.6 4.3 0.00 0.00 0.00 55 1018.6
20260506141344 40 271 1.7 8.7 0.00 0.00 0.00 55 1018.6
20260506140842 40 230 2.6 7.0 0.00 0.00 0.00 56 1018.6
20260506140339 39 229 3.5 8.7 0.00 0.00 0.00 57 1018.8
20260506135836 39 321 2.6 7.8 0.00 0.00 0.00 58 1018.6
20260506135332 40 200 4.3 8.7 0.00 0.00 0.00 58 1018.6
20260506134829 39 168 1.7 5.2 0.00 0.00 0.00 59 1018.3
20260506134325 39 199 3.5 7.8 0.00 0.00 0.00 60 1018.4
20260506133823 39 229 5.2 7.0 0.00 0.00 0.00 59 1018.5
20260506133319 39 305 2.6 5.2 0.00 0.00 0.00 59 1018.3
20260506132816 39 200 2.6 7.0 0.00 0.00 0.00 60 1018.4
20260506132313 39 9 0.9 7.0 0.00 0.00 0.00 60 1018.4
20260506131811 39 183 1.7 7.0 0.00 0.00 0.00 61 1018.2
20260506131307 39 190 2.6 4.3 0.00 0.00 0.00 60 1018.1
20260506130804 38 263 2.6 6.1 0.00 0.00 0.00 61 1018.1
20260506130300 38 36 0.0 1.7 0.00 0.00 0.00 62 1018.0
20260506125759 37 214 3.5 4.3 0.00 0.00 0.00 64 1018.1
20260506125256 37 283 2.6 6.1 0.00 0.00 0.00 64 1018.0
20260506124755 37 234 3.5 5.2 0.00 0.00 0.00 64 1017.7
20260506124252 36 266 1.7 2.6 0.00 0.00 0.00 65 1017.9
20260506123749 36 24 0.9 1.7 0.00 0.00 0.00 67 1018.0
20260506123248 35 307 0.0 0.9 0.00 0.00 0.00 68 1017.9
20260506122744 35 248 0.9 1.7 0.00 0.00 0.00 68 1018.0
20260506122241 35 262 0.9 1.7 0.00 0.00 0.00 69 1018.0
20260506121739 35 217 3.5 5.2 0.00 0.00 0.00 68 1017.8
20260506121236 35 186 1.7 4.3 0.00 0.00 0.00 68 1017.7
20260506120733 34 236 1.7 4.3 0.00 0.00 0.00 69 1017.7
20260506120231 34 340 1.7 2.6 0.00 0.00 0.00 69 1017.7
20260506115729 33 206 2.6 2.6 0.00 0.00 0.00 71 1017.4
20260506115227 33 213 0.0 1.7 0.00 0.00 0.00 72 1017.5
20260506114724 33 252 0.9 1.7 0.00 0.00 0.00 73 1017.2
20260506114221 33 198 0.0 1.7 0.00 0.00 0.00 73 1017.4
20260506113720 32 223 1.7 2.6 0.00 0.00 0.00 73 1017.2
20260506113217 32 210 3.5 4.3 0.00 0.00 0.00 74 1017.0
20260506112713 32 264 0.0 0.9 0.00 0.00 0.00 75 1017.0
20260506112211 32 259 0.0 0.9 0.00 0.00 0.00 75 1016.9
20260506111708 32 235 0.0 0.9 0.00 0.00 0.00 75 1017.1
20260506111206 32 250 0.9 0.9 0.00 0.00 0.00 75 1017.3
20260506110703 32 224 0.9 0.9 0.00 0.00 0.00 73 1017.3
20260506110201 32 244 0.9 1.7 0.00 0.00 0.00 73 1017.5
20260506105657 32 232 0.9 1.7 0.00 0.00 0.00 74 1017.3
20260506105154 32 236 0.0 1.7 0.00 0.00 0.00 74 1017.3
20260506104652 32 235 0.9 1.7 0.00 0.00 0.00 74 1017.2
20260506104149 32 242 0.9 1.7 0.00 0.00 0.00 74 1017.2
20260506103646 32 203 0.9 1.7 0.00 0.00 0.00 75 1017.2
20260506103143 32 212 0.9 0.9 0.00 0.00 0.00 76 1016.9
20260506102642 32 201 0.9 0.9 0.00 0.00 0.00 74 1016.9
20260506102138 32 214 0.0 2.6 0.00 0.00 0.00 73 1016.9
20260506101635 32 237 0.0 1.7 0.00 0.00 0.00 73 1016.7
20260506101132 32 219 0.9 1.7 0.00 0.00 0.00 74 1016.9
20260506100631 32 229 0.9 1.7 0.00 0.00 0.00 74 1016.9
20260506100128 32 226 0.9 1.7 0.00 0.00 0.00 74 1017.0
20260506095627 32 215 0.9 1.7 0.00 0.00 0.00 75 1016.8
20260506095123 32 222 0.9 1.7 0.00 0.00 0.00 74 1016.7
20260506094620 32 246 1.7 1.7 0.00 0.00 0.00 74 1016.7
20260506094118 32 235 0.9 0.9 0.00 0.00 0.00 75 1016.8
20260506093616 31 245 0.9 0.9 0.00 0.00 0.00 76 1016.5
20260506093113 31 226 0.0 0.9 0.00 0.00 0.00 76 1016.9
20260506092611 31 259 0.0 0.0 0.00 0.00 0.00 76 1016.9
20260506092108 31 241 0.0 0.9 0.00 0.00 0.00 77 1017.1
20260506091606 31 232 0.0 0.9 0.00 0.00 0.00 77 1016.9
20260506091103 31 202 0.0 0.9 0.00 0.00 0.00 77 1016.9
20260506090601 32 191 0.0 0.9 0.00 0.00 0.00 76 1017.0
20260506090057 32 191 0.9 0.9 0.00 0.00 0.00 75 1016.7
20260506085554 32 232 0.0 0.0 0.00 0.00 0.00 75 1016.6
20260506085050 32 222 0.0 0.0 0.00 0.00 0.00 75 1016.5
20260506084547 32 235 0.0 0.0 0.00 0.00 0.00 74 1016.5
20260506084043 32 253 0.0 0.9 0.00 0.00 0.00 74 1016.4
20260506083541 32 235 0.0 0.0 0.00 0.00 0.00 74 1016.6
20260506083038 33 240 0.9 0.9 0.00 0.00 0.00 73 1016.6
20260506082535 33 222 0.9 0.9 0.00 0.00 0.00 73 1016.8
20260506082030 32 222 0.0 0.9 0.00 0.00 0.00 74 1016.8
20260506081529 32 214 0.0 0.9 0.00 0.00 0.00 75 1016.6
20260506081026 32 242 0.9 1.7 0.00 0.00 0.00 76 1016.7
20260506080523 32 202 0.9 0.9 0.00 0.00 0.00 76 1016.5
20260506073507 33 214 0.0 0.9 0.00 0.00 0.00 73 1016.3
20260506073004 33 202 0.0 0.9 0.00 0.00 0.00 73 1016.5
20260506072501 33 260 0.9 0.9 0.00 0.00 0.00 73 1016.3
20260506071959 33 256 0.0 0.0 0.00 0.00 0.00 72 1016.3
20260506071456 34 242 0.0 0.9 0.00 0.00 0.00 72 1016.1
20260506070953 34 233 0.9 0.9 0.00 0.00 0.00 71 1016.1
20260506070450 35 201 0.0 0.9 0.00 0.00 0.00 70 1016.4
20260506062428 35 196 0.9 1.7 0.00 0.00 0.00 68 1016.1
20260506061924 36 209 0.0 0.9 0.00 0.00 0.00 68 1016.2
20260506061420 35 229 2.6 4.3 0.00 0.00 0.00 68 1016.1